SWA3508 KMSY-KMDW

Flight info

Callsign SWA3508
Flight time 1h 51m
Altitude 35000
Route MCB MEM HUMBO ENL PHEEB ENDEE8
Aircraft B738/M-SDE2E3FGHIRWXY/LB1

Departure

Time 2026-05-07 19:49
Airport Louis Armstrong New Orleans International Airport (KMSY)

Arrival

Time 2026-05-07 21:41
Airport Chicago Midway International Airport (KMDW)
Time Latitude Longitude Altitude Speed Heading
2026-05-07 19:10 29.99377 -90.25610 11 ft 0 kts 288°
2026-05-07 19:42 29.99373 -90.25597 11 ft 2 kts 288°
2026-05-07 19:42 29.99368 -90.25580 11 ft 2 kts 288°
2026-05-07 19:42 29.99364 -90.25564 11 ft 2 kts 288°
2026-05-07 19:43 29.99361 -90.25547 11 ft 2 kts 263°
2026-05-07 19:43 29.99365 -90.25530 11 ft 2 kts 240°
2026-05-07 19:43 29.99374 -90.25517 11 ft 2 kts 216°
2026-05-07 19:43 29.99388 -90.25510 11 ft 2 kts 192°
2026-05-07 19:44 29.99403 -90.25508 11 ft 2 kts 178°
2026-05-07 19:44 29.99411 -90.25508 11 ft 0 kts 183°
2026-05-07 19:45 29.99407 -90.25509 11 ft 3 kts 183°
2026-05-07 19:46 29.99348 -90.25513 11 ft 11 kts 183°
2026-05-07 19:46 29.99260 -90.25518 11 ft 12 kts 180°
2026-05-07 19:46 29.99206 -90.25456 11 ft 11 kts 103°
2026-05-07 19:46 29.99199 -90.25368 11 ft 10 kts 92°
2026-05-07 19:47 29.99197 -90.25285 11 ft 10 kts 94°
2026-05-07 19:47 29.99191 -90.25207 11 ft 10 kts 95°
2026-05-07 19:47 29.99181 -90.25101 11 ft 13 kts 109°
2026-05-07 19:47 29.99101 -90.25075 11 ft 12 kts 195°
2026-05-07 19:48 29.99018 -90.25101 11 ft 11 kts 195°
2026-05-07 19:48 29.98950 -90.25140 11 ft 10 kts 243°
2026-05-07 19:48 29.98959 -90.25259 11 ft 31 kts 284°
2026-05-07 19:48 29.99088 -90.25791 11 ft 102 kts 285°
2026-05-07 19:49 29.99330 -90.26806 11 ft 158 kts 286°
2026-05-07 19:49 29.99671 -90.28153 320 ft 179 kts 287°
2026-05-07 19:49 30.00004 -90.29522 1021 ft 181 kts 287°
2026-05-07 19:49 30.00331 -90.30957 1558 ft 193 kts 285°
2026-05-07 19:50 30.00673 -90.32533 1933 ft 209 kts 285°
2026-05-07 19:50 30.01077 -90.34164 2418 ft 219 kts 291°
2026-05-07 19:50 30.01797 -90.35784 2903 ft 234 kts 304°
2026-05-07 19:50 30.02874 -90.37242 3442 ft 247 kts 314°
2026-05-07 19:51 30.04147 -90.38655 3956 ft 260 kts 313°
2026-05-07 19:51 30.05542 -90.39960 4534 ft 264 kts 330°
2026-05-07 19:51 30.07325 -90.40539 5126 ft 273 kts 355°
2026-05-07 19:51 30.09241 -90.40311 5714 ft 279 kts
2026-05-07 19:52 30.11174 -90.39918 6304 ft 280 kts
2026-05-07 19:52 30.13132 -90.39613 6889 ft 283 kts
2026-05-07 19:52 30.15088 -90.39389 7431 ft 285 kts
2026-05-07 19:52 30.17071 -90.39181 8006 ft 288 kts
2026-05-07 19:53 30.19099 -90.38958 8602 ft 292 kts
2026-05-07 19:53 30.21127 -90.38728 9167 ft 295 kts
2026-05-07 19:53 30.23177 -90.38490 9723 ft 297 kts
2026-05-07 19:53 30.25256 -90.38244 10305 ft 307 kts
2026-05-07 19:54 30.27456 -90.37985 10736 ft 323 kts
2026-05-07 19:54 30.29758 -90.37717 11148 ft 339 kts
2026-05-07 19:54 30.32157 -90.37441 11554 ft 355 kts
2026-05-07 19:54 30.34670 -90.37152 11969 ft 369 kts
2026-05-07 19:55 30.37263 -90.36852 12508 ft 378 kts
2026-05-07 19:55 30.39913 -90.36543 13088 ft 385 kts
2026-05-07 19:55 30.42593 -90.36229 13662 ft 388 kts
2026-05-07 19:55 30.45296 -90.35915 14237 ft 392 kts
2026-05-07 19:56 30.48074 -90.35594 14822 ft 399 kts
2026-05-07 19:56 30.50857 -90.35272 15399 ft 403 kts 360°
2026-05-07 19:56 30.53639 -90.34949 15967 ft 409 kts 359°
2026-05-07 19:56 30.56488 -90.34617 16545 ft 412 kts 359°
2026-05-07 19:57 30.59364 -90.34279 17120 ft 418 kts 359°
2026-05-07 19:57 30.62283 -90.33934 17697 ft 423 kts 358°
2026-05-07 19:57 30.65254 -90.33583 18282 ft 426 kts 359°
2026-05-07 19:57 30.68204 -90.33234 18854 ft 430 kts 359°
2026-05-07 19:58 30.71213 -90.32879 19436 ft 433 kts 358°
2026-05-07 19:58 30.74208 -90.32525 20006 ft 433 kts 358°
2026-05-07 19:58 30.77214 -90.32169 20584 ft 437 kts 358°
2026-05-07 19:58 30.80283 -90.31806 21168 ft 440 kts 358°
2026-05-07 19:59 30.83318 -90.31447 21744 ft 442 kts 358°
2026-05-07 19:59 30.86389 -90.31081 22323 ft 444 kts 358°
2026-05-07 19:59 30.89468 -90.30714 22907 ft 446 kts 357°
2026-05-07 19:59 30.92574 -90.30343 23420 ft 449 kts 358°
2026-05-07 20:00 30.95711 -90.29972 23892 ft 453 kts 357°
2026-05-07 20:00 30.98864 -90.29600 24365 ft 457 kts 357°
2026-05-07 20:00 31.02041 -90.29226 24830 ft 461 kts 357°
2026-05-07 20:00 31.05262 -90.28848 25122 ft 469 kts 357°
2026-05-07 20:01 31.08576 -90.28462 25407 ft 477 kts 357°
2026-05-07 20:01 31.11915 -90.28073 25681 ft 485 kts 357°
2026-05-07 20:01 31.15323 -90.27671 26073 ft 489 kts 357°
2026-05-07 20:01 31.18719 -90.27267 26465 ft 491 kts 357°
2026-05-07 20:02 31.22102 -90.26862 26862 ft 494 kts 357°
2026-05-07 20:02 31.25571 -90.26442 27267 ft 495 kts 357°
2026-05-07 20:02 31.28960 -90.26032 27665 ft 494 kts 357°
2026-05-07 20:02 31.32407 -90.25626 28075 ft 490 kts 356°
2026-05-07 20:03 31.35776 -90.25308 28476 ft 489 kts 354°
2026-05-07 20:03 31.39210 -90.25050 28887 ft 488 kts 354°
2026-05-07 20:03 31.42568 -90.24828 29288 ft 486 kts 353°
2026-05-07 20:03 31.45947 -90.24618 29689 ft 486 kts 353°
2026-05-07 20:04 31.49354 -90.24406 30087 ft 488 kts 353°
2026-05-07 20:04 31.52738 -90.24192 30490 ft 488 kts 353°
2026-05-07 20:04 31.56157 -90.23967 30895 ft 488 kts 353°
2026-05-07 20:04 31.59530 -90.23740 31291 ft 488 kts 353°
2026-05-07 20:05 31.62909 -90.23504 31693 ft 487 kts 353°
2026-05-07 20:05 31.66286 -90.23264 32091 ft 486 kts 353°
2026-05-07 20:05 31.69694 -90.23020 32497 ft 487 kts 353°
2026-05-07 20:05 31.73079 -90.22778 32898 ft 486 kts 353°
2026-05-07 20:06 31.76450 -90.22536 33332 ft 485 kts 353°
2026-05-07 20:06 31.79835 -90.22294 33788 ft 484 kts 353°
2026-05-07 20:06 31.83205 -90.22051 34249 ft 483 kts 352°
2026-05-07 20:06 31.86568 -90.21807 34708 ft 482 kts 352°
2026-05-07 20:07 31.89907 -90.21566 35017 ft 482 kts 352°
2026-05-07 20:07 31.93274 -90.21325 35019 ft 482 kts 352°
2026-05-07 20:07 31.99941 -90.20840 35025 ft 478 kts 351°
2026-05-07 20:08 32.06570 -90.20361 35028 ft 476 kts 351°
2026-05-07 20:08 32.13315 -90.19880 35032 ft 476 kts 352°
2026-05-07 20:09 32.20004 -90.19398 35036 ft 478 kts 351°
2026-05-07 20:10 32.29887 -90.18674 35037 ft 475 kts 351°
2026-05-07 20:10 32.36547 -90.18198 35034 ft 478 kts 351°
2026-05-07 20:11 32.43183 -90.17709 35030 ft 475 kts 351°
2026-05-07 20:11 32.49802 -90.17226 35029 ft 474 kts 351°
2026-05-07 20:12 32.56381 -90.16742 35028 ft 471 kts 351°
2026-05-07 20:12 32.62971 -90.16269 35026 ft 475 kts 350°
2026-05-07 20:13 32.69511 -90.15781 35016 ft 469 kts 350°
2026-05-07 20:13 32.76066 -90.15307 35021 ft 473 kts 350°
2026-05-07 20:14 32.82649 -90.14826 35021 ft 471 kts 350°
2026-05-07 20:14 32.89156 -90.14338 35017 ft 468 kts 349°
2026-05-07 20:15 32.95670 -90.13856 35015 ft 465 kts 350°
2026-05-07 20:15 33.02159 -90.13376 35019 ft 465 kts 349°
2026-05-07 20:16 33.08629 -90.12904 35023 ft 467 kts 349°
2026-05-07 20:16 33.15190 -90.12430 35019 ft 470 kts 349°
2026-05-07 20:17 33.21688 -90.11939 35030 ft 464 kts 349°
2026-05-07 20:17 33.28190 -90.11459 35032 ft 468 kts 349°
2026-05-07 20:18 33.34686 -90.10976 35044 ft 463 kts 349°
2026-05-07 20:18 33.41168 -90.10489 35045 ft 465 kts 349°
2026-05-07 20:19 33.47682 -90.10013 35048 ft 469 kts 349°
2026-05-07 20:19 33.54199 -90.09526 35048 ft 465 kts 349°
2026-05-07 20:20 33.60671 -90.09034 35046 ft 466 kts 349°
2026-05-07 20:20 33.67188 -90.08556 35045 ft 469 kts 349°
2026-05-07 20:21 33.73640 -90.08062 35044 ft 461 kts 349°
2026-05-07 20:21 33.80073 -90.07581 35041 ft 467 kts 349°
2026-05-07 20:22 33.86613 -90.07100 35038 ft 466 kts 349°
2026-05-07 20:22 33.93084 -90.06597 35032 ft 460 kts 349°
2026-05-07 20:23 33.99517 -90.06119 35038 ft 468 kts 349°
2026-05-07 20:23 34.06034 -90.05633 35037 ft 465 kts 349°
2026-05-07 20:24 34.12520 -90.05135 35038 ft 464 kts 349°
2026-05-07 20:24 34.18987 -90.04639 35041 ft 465 kts 349°
2026-05-07 20:25 34.25469 -90.04157 35046 ft 467 kts 348°
2026-05-07 20:25 34.31931 -90.03664 35049 ft 461 kts 348°
2026-05-07 20:26 34.38359 -90.03162 35052 ft 462 kts 348°
2026-05-07 20:26 34.44765 -90.02686 35049 ft 463 kts 348°
2026-05-07 20:27 34.51255 -90.02194 35048 ft 465 kts 348°
2026-05-07 20:27 34.57707 -90.01695 35046 ft 460 kts 348°
2026-05-07 20:28 34.64075 -90.01197 35046 ft 458 kts 347°
2026-05-07 20:28 34.70488 -90.00713 35051 ft 460 kts 347°
2026-05-07 20:29 34.76888 -90.00223 35052 ft 458 kts 348°
2026-05-07 20:29 34.83288 -89.99730 35058 ft 460 kts 347°
2026-05-07 20:30 34.89683 -89.99242 35067 ft 461 kts 347°
2026-05-07 20:30 34.96075 -89.98748 35065 ft 457 kts 347°
2026-05-07 20:31 35.02452 -89.98171 35068 ft 466 kts 350°
2026-05-07 20:31 35.08913 -89.96903 35065 ft 474 kts 354°
2026-05-07 20:32 35.15487 -89.95303 35066 ft 478 kts 355°
2026-05-07 20:32 35.22028 -89.93677 35064 ft 476 kts 355°
2026-05-07 20:33 35.28493 -89.92096 35063 ft 472 kts 354°
2026-05-07 20:33 35.34981 -89.90558 35062 ft 476 kts 354°
2026-05-07 20:34 35.41501 -89.89030 35060 ft 473 kts 354°
2026-05-07 20:34 35.47918 -89.87520 35059 ft 473 kts 354°
2026-05-07 20:35 35.54419 -89.86006 35056 ft 474 kts 354°
2026-05-07 20:35 35.60892 -89.84478 35055 ft 471 kts 354°
2026-05-07 20:36 35.67365 -89.82958 35053 ft 472 kts 354°
2026-05-07 20:36 35.73849 -89.81438 35054 ft 475 kts 354°
2026-05-07 20:37 35.80325 -89.79905 35054 ft 474 kts 354°
2026-05-07 20:37 35.86785 -89.78379 35042 ft 472 kts 354°
2026-05-07 20:38 35.93203 -89.76849 35041 ft 468 kts 354°
2026-05-07 20:38 35.99656 -89.75331 35044 ft 474 kts 354°
2026-05-07 20:39 36.06138 -89.73799 35044 ft 474 kts 354°
2026-05-07 20:39 36.12643 -89.72244 35054 ft 470 kts 354°
2026-05-07 20:40 36.19082 -89.70702 35050 ft 472 kts 354°
2026-05-07 20:40 36.25567 -89.69167 35049 ft 475 kts 354°
2026-05-07 20:41 36.32044 -89.67612 35049 ft 472 kts 354°
2026-05-07 20:41 36.38470 -89.66066 35047 ft 472 kts 354°
2026-05-07 20:42 36.44941 -89.64520 35045 ft 470 kts 354°
2026-05-07 20:42 36.51362 -89.62968 35045 ft 469 kts 354°
2026-05-07 20:43 36.57780 -89.61434 35041 ft 472 kts 354°
2026-05-07 20:43 36.64238 -89.59876 35040 ft 471 kts 354°
2026-05-07 20:44 36.70655 -89.58324 35040 ft 471 kts 354°
2026-05-07 20:44 36.77117 -89.56768 35043 ft 471 kts 354°
2026-05-07 20:45 36.83551 -89.55200 35048 ft 469 kts 354°
2026-05-07 20:45 36.89962 -89.53635 35048 ft 469 kts 354°
2026-05-07 20:46 36.96433 -89.52073 35048 ft 473 kts 354°
2026-05-07 20:46 37.02880 -89.50500 35048 ft 471 kts 354°
2026-05-07 20:47 37.09354 -89.48920 35046 ft 472 kts 355°
2026-05-07 20:47 37.15820 -89.47331 35042 ft 469 kts 354°
2026-05-07 20:48 37.22277 -89.45747 35045 ft 470 kts 354°
2026-05-07 20:48 37.28641 -89.44183 35040 ft 468 kts 355°
2026-05-07 20:49 37.35033 -89.42610 35040 ft 467 kts 355°
2026-05-07 20:49 37.41462 -89.41036 35037 ft 468 kts 355°
2026-05-07 20:50 37.47868 -89.39454 35036 ft 468 kts 355°
2026-05-07 20:50 37.54211 -89.37884 35031 ft 465 kts 355°
2026-05-07 20:51 37.60582 -89.36307 35038 ft 464 kts 355°
2026-05-07 20:51 37.66919 -89.34729 35040 ft 464 kts 356°
2026-05-07 20:52 37.73307 -89.33157 35046 ft 467 kts 356°
2026-05-07 20:52 37.79691 -89.31559 35045 ft 462 kts 356°
2026-05-07 20:53 37.86018 -89.29990 35044 ft 464 kts 357°
2026-05-07 20:53 37.92356 -89.28404 35046 ft 462 kts 357°
2026-05-07 20:54 37.98700 -89.26826 35038 ft 464 kts 357°
2026-05-07 20:54 38.05061 -89.25226 35037 ft 463 kts 357°
2026-05-07 20:55 38.11441 -89.23626 35022 ft 463 kts 357°
2026-05-07 20:55 38.17813 -89.22020 35022 ft 464 kts 357°
2026-05-07 20:56 38.24104 -89.20430 35018 ft 463 kts 357°
2026-05-07 20:56 38.30432 -89.18837 35019 ft 463 kts 357°
2026-05-07 20:57 38.36769 -89.17236 35019 ft 464 kts 357°
2026-05-07 20:57 38.43055 -89.16078 35027 ft 445 kts 349°
2026-05-07 20:58 38.49181 -89.16085 35033 ft 435 kts 343°
2026-05-07 20:58 38.55166 -89.16513 35032 ft 435 kts 342°
2026-05-07 20:59 38.61228 -89.16981 35025 ft 434 kts 342°
2026-05-07 20:59 38.67255 -89.17387 35026 ft 430 kts 342°
2026-05-07 21:00 38.73262 -89.17778 35018 ft 431 kts 343°
2026-05-07 21:00 38.79190 -89.18146 35011 ft 430 kts 343°
2026-05-07 21:01 38.85183 -89.18521 34993 ft 432 kts 343°
2026-05-07 21:01 38.91193 -89.18891 35015 ft 432 kts 343°
2026-05-07 21:02 38.97180 -89.19252 35007 ft 427 kts 343°
2026-05-07 21:02 39.03160 -89.19625 34978 ft 430 kts 343°
2026-05-07 21:03 39.09131 -89.19991 35003 ft 430 kts 343°
2026-05-07 21:03 39.15127 -89.20361 35012 ft 431 kts 343°
2026-05-07 21:04 39.21101 -89.20725 35016 ft 428 kts 343°
2026-05-07 21:04 39.27076 -89.21101 34998 ft 430 kts 343°
2026-05-07 21:05 39.33047 -89.21466 34999 ft 430 kts 343°
2026-05-07 21:05 39.38993 -89.21838 35008 ft 432 kts 344°
2026-05-07 21:06 39.44975 -89.22208 34996 ft 429 kts 344°
2026-05-07 21:06 39.50977 -89.22579 34991 ft 428 kts 344°
2026-05-07 21:07 39.56910 -89.22950 34993 ft 429 kts 344°
2026-05-07 21:07 39.62896 -89.23323 34984 ft 428 kts 345°
2026-05-07 21:08 39.68848 -89.23701 34985 ft 430 kts 345°
2026-05-07 21:08 39.74820 -89.24074 34974 ft 431 kts 345°
2026-05-07 21:09 39.80818 -89.24455 34980 ft 431 kts 345°
2026-05-07 21:09 39.86813 -89.24826 34976 ft 430 kts 345°
2026-05-07 21:09 39.89796 -89.25017 34786 ft 433 kts 345°
2026-05-07 21:10 39.92812 -89.25208 34389 ft 431 kts 346°
2026-05-07 21:10 39.95799 -89.25391 33988 ft 427 kts 346°
2026-05-07 21:10 39.98744 -89.25571 33459 ft 424 kts 346°
2026-05-07 21:10 40.01687 -89.25751 32925 ft 420 kts 346°
2026-05-07 21:11 40.04575 -89.25929 32382 ft 417 kts 346°
2026-05-07 21:11 40.07459 -89.26109 31835 ft 413 kts 346°
2026-05-07 21:11 40.13157 -89.26466 30738 ft 407 kts 346°
2026-05-07 21:12 40.15989 -89.26645 30155 ft 402 kts 346°
2026-05-07 21:12 40.18745 -89.26816 29561 ft 395 kts 346°
2026-05-07 21:12 40.21477 -89.26917 28959 ft 391 kts 349°
2026-05-07 21:12 40.24204 -89.26688 28360 ft 394 kts 357°
2026-05-07 21:13 40.26874 -89.25828 27796 ft 402 kts
2026-05-07 21:13 40.29434 -89.24300 27230 ft 409 kts 18°
2026-05-07 21:13 40.31838 -89.22292 26664 ft 409 kts 23°
2026-05-07 21:13 40.34155 -89.20114 26098 ft 407 kts 25°
2026-05-07 21:14 40.36399 -89.17903 25539 ft 405 kts 26°
2026-05-07 21:14 40.38637 -89.15662 24980 ft 399 kts 24°
2026-05-07 21:14 40.40885 -89.13733 24428 ft 385 kts 18°
2026-05-07 21:14 40.43208 -89.12064 23865 ft 376 kts 14°
2026-05-07 21:15 40.45539 -89.10542 23320 ft 370 kts 13°
2026-05-07 21:15 40.47841 -89.09092 22795 ft 365 kts 13°
2026-05-07 21:15 40.50119 -89.07666 22313 ft 364 kts 14°
2026-05-07 21:15 40.52400 -89.06233 21843 ft 362 kts 14°
2026-05-07 21:16 40.54668 -89.04799 21369 ft 361 kts 15°
2026-05-07 21:16 40.56931 -89.03357 20885 ft 360 kts 15°
2026-05-07 21:16 40.59150 -89.01936 20414 ft 358 kts 15°
2026-05-07 21:16 40.61403 -89.00487 19931 ft 357 kts 17°
2026-05-07 21:17 40.63625 -88.99054 19442 ft 355 kts 17°
2026-05-07 21:17 40.65820 -88.97636 18952 ft 354 kts 17°
2026-05-07 21:17 40.68045 -88.96196 18435 ft 352 kts 17°
2026-05-07 21:17 40.70226 -88.94783 17929 ft 350 kts 18°
2026-05-07 21:18 40.72387 -88.93382 17428 ft 348 kts 18°
2026-05-07 21:18 40.74559 -88.91974 16933 ft 347 kts 18°
2026-05-07 21:18 40.76717 -88.90573 16424 ft 345 kts 18°
2026-05-07 21:18 40.78866 -88.89178 15926 ft 343 kts 19°
2026-05-07 21:19 40.80994 -88.87794 15434 ft 341 kts 19°
2026-05-07 21:19 40.83143 -88.86397 14948 ft 339 kts 19°
2026-05-07 21:19 40.85243 -88.85032 14471 ft 337 kts 19°
2026-05-07 21:19 40.87328 -88.83676 14118 ft 331 kts 19°
2026-05-07 21:20 40.89354 -88.82355 13785 ft 325 kts 19°
2026-05-07 21:20 40.91391 -88.81029 13446 ft 319 kts 19°
2026-05-07 21:20 40.93361 -88.79749 13131 ft 314 kts 18°
2026-05-07 21:20 40.95304 -88.78488 12816 ft 309 kts 18°
2026-05-07 21:21 40.97213 -88.77247 12510 ft 304 kts 18°
2026-05-07 21:21 40.99103 -88.76015 12199 ft 299 kts 18°
2026-05-07 21:21 41.00956 -88.74807 11891 ft 295 kts 18°
2026-05-07 21:21 41.02789 -88.73612 11597 ft 291 kts 18°
2026-05-07 21:22 41.04605 -88.72428 11304 ft 288 kts 18°
2026-05-07 21:22 41.06373 -88.71271 11007 ft 285 kts 18°
2026-05-07 21:22 41.08145 -88.70110 10700 ft 281 kts 18°
2026-05-07 21:22 41.09900 -88.68961 10395 ft 280 kts 18°
2026-05-07 21:23 41.11662 -88.67813 10093 ft 277 kts 18°
2026-05-07 21:23 41.13388 -88.66690 9825 ft 276 kts 18°
2026-05-07 21:23 41.15120 -88.65566 9547 ft 276 kts 18°
2026-05-07 21:23 41.16829 -88.64457 9275 ft 276 kts 19°
2026-05-07 21:24 41.18560 -88.63325 9007 ft 276 kts 19°
2026-05-07 21:24 41.20299 -88.62188 8731 ft 276 kts 19°
2026-05-07 21:24 41.22021 -88.61066 8454 ft 275 kts 19°
2026-05-07 21:24 41.23729 -88.59954 8179 ft 275 kts 19°
2026-05-07 21:25 41.25443 -88.58835 7899 ft 274 kts 19°
2026-05-07 21:25 41.27152 -88.57716 7622 ft 273 kts 19°
2026-05-07 21:25 41.28859 -88.56593 7349 ft 273 kts 20°
2026-05-07 21:25 41.30552 -88.55477 7096 ft 272 kts 20°
2026-05-07 21:26 41.32263 -88.54356 6840 ft 272 kts 19°
2026-05-07 21:26 41.33946 -88.53259 6594 ft 272 kts 20°
2026-05-07 21:26 41.35637 -88.52149 6342 ft 271 kts 20°
2026-05-07 21:26 41.37307 -88.50929 6094 ft 273 kts 28°
2026-05-07 21:27 41.38718 -88.49253 6001 ft 275 kts 45°
2026-05-07 21:27 41.39904 -88.47221 6008 ft 282 kts 49°
2026-05-07 21:27 41.41074 -88.45116 6002 ft 281 kts 49°
2026-05-07 21:27 41.42266 -88.43040 5999 ft 281 kts 47°
2026-05-07 21:28 41.43485 -88.40990 5995 ft 280 kts 46°
2026-05-07 21:28 41.44711 -88.38971 6006 ft 282 kts 46°
2026-05-07 21:28 41.45942 -88.36943 6002 ft 281 kts 46°
2026-05-07 21:28 41.47166 -88.34912 6002 ft 281 kts 47°
2026-05-07 21:29 41.48404 -88.32852 6005 ft 283 kts 47°
2026-05-07 21:29 41.49635 -88.30805 6003 ft 283 kts 47°
2026-05-07 21:29 41.50835 -88.28696 6004 ft 285 kts 52°
2026-05-07 21:29 41.51910 -88.26495 6001 ft 284 kts 54°
2026-05-07 21:30 41.52956 -88.24225 6002 ft 286 kts 55°
2026-05-07 21:30 41.53988 -88.21968 6004 ft 286 kts 55°
2026-05-07 21:30 41.55020 -88.19726 6001 ft 285 kts 55°
2026-05-07 21:30 41.56065 -88.17461 6001 ft 285 kts 55°
2026-05-07 21:31 41.57116 -88.15190 5999 ft 285 kts 55°
2026-05-07 21:31 41.58157 -88.12941 6000 ft 285 kts 54°
2026-05-07 21:31 41.59200 -88.10687 6002 ft 285 kts 54°
2026-05-07 21:31 41.60243 -88.08435 6001 ft 286 kts 55°
2026-05-07 21:32 41.61289 -88.06172 6002 ft 286 kts 55°
2026-05-07 21:32 41.62338 -88.03898 6001 ft 285 kts 55°
2026-05-07 21:32 41.63372 -88.01654 6002 ft 286 kts 55°
2026-05-07 21:32 41.64419 -87.99382 5997 ft 284 kts 55°
2026-05-07 21:33 41.65449 -87.97150 5999 ft 286 kts 54°
2026-05-07 21:33 41.66500 -87.94872 6005 ft 286 kts 55°
2026-05-07 21:33 41.67553 -87.92584 5822 ft 288 kts 55°
2026-05-07 21:33 41.68577 -87.90346 5587 ft 282 kts 55°
2026-05-07 21:34 41.69601 -87.88107 5368 ft 279 kts 55°
2026-05-07 21:34 41.70610 -87.85912 5131 ft 279 kts 55°
2026-05-07 21:34 41.71629 -87.83697 4898 ft 277 kts 56°
2026-05-07 21:34 41.72635 -87.81506 4660 ft 275 kts 56°
2026-05-07 21:35 41.73610 -87.79369 4449 ft 263 kts 56°
2026-05-07 21:35 41.74537 -87.77329 4238 ft 249 kts 56°
2026-05-07 21:35 41.75349 -87.75316 4023 ft 239 kts 65°
2026-05-07 21:35 41.75699 -87.73208 3850 ft 226 kts 85°
2026-05-07 21:36 41.75744 -87.71165 3671 ft 220 kts 89°
2026-05-07 21:36 41.75779 -87.69123 3471 ft 217 kts 88°
2026-05-07 21:36 41.75936 -87.67139 3262 ft 207 kts 75°
2026-05-07 21:36 41.76549 -87.65504 3072 ft 189 kts 47°
2026-05-07 21:37 41.77502 -87.64320 2873 ft 190 kts 32°
2026-05-07 21:37 41.78626 -87.63436 2667 ft 185 kts 13°
2026-05-07 21:37 41.79852 -87.63133 2468 ft 174 kts 354°
2026-05-07 21:37 41.81003 -87.63290 2304 ft 162 kts 339°
2026-05-07 21:38 41.82002 -87.63902 2180 ft 153 kts 315°
2026-05-07 21:38 41.82698 -87.64907 2014 ft 147 kts 297°
2026-05-07 21:38 41.83163 -87.66089 1836 ft 143 kts 285°
2026-05-07 21:38 41.83312 -87.67382 1692 ft 135 kts 265°
2026-05-07 21:39 41.83154 -87.68587 1576 ft 133 kts 254°
2026-05-07 21:39 41.82760 -87.69709 1559 ft 134 kts 236°
2026-05-07 21:39 41.82086 -87.70702 1419 ft 151 kts 229°
2026-05-07 21:39 41.81304 -87.71630 1188 ft 150 kts 226°
2026-05-07 21:40 41.80559 -87.72557 983 ft 143 kts 229°
2026-05-07 21:40 41.79849 -87.73474 803 ft 141 kts 226°
2026-05-07 21:40 41.79148 -87.74368 637 ft 137 kts 228°
2026-05-07 21:40 41.78538 -87.75147 615 ft 82 kts 224°
2026-05-07 21:41 41.78302 -87.75440 617 ft 29 kts 220°
2026-05-07 21:41 41.78162 -87.75536 618 ft 19 kts 196°
2026-05-07 21:41 41.78109 -87.75493 618 ft 10 kts 64°
2026-05-07 21:41 41.78171 -87.75407 617 ft 14 kts 42°
2026-05-07 21:42 41.78254 -87.75308 616 ft 17 kts 44°
2026-05-07 21:42 41.78345 -87.75188 615 ft 18 kts 44°
2026-05-07 21:42 41.78442 -87.75063 614 ft 19 kts 44°
2026-05-07 21:42 41.78537 -87.74942 614 ft 19 kts 43°
2026-05-07 21:43 41.78629 -87.74825 613 ft 15 kts 42°
2026-05-07 21:43 41.78698 -87.74774 613 ft 10 kts 25°
2026-05-07 21:43 41.78758 -87.74707 613 ft 11 kts 45°
2026-05-07 21:43 41.78791 -87.74621 613 ft 8 kts 100°
2026-05-07 21:44 41.78772 -87.74567 613 ft 5 kts 115°
2026-05-07 21:44 41.78761 -87.74535 613 ft 1 kts 114°